ONEWEB-0244 (48776 NORAD) Tracking and Keplerian Element Data

This shows tracking and keplerian element data for the satellite.

Feedback or suggestion? Click here.




ElementValue
Catalog48776
NameONEWEB-0244
Epoch Orbit356
Epoch Day214.91667824
Epoch Year2021
RAAN254.7144
Inclination87.658
Eccentricity0.0007815
Argument of Perigee50.1297
Mean Anonmoly153.4965
Mean Motion14.57779124
Decay Rate0.00033349
L11 48776U 21045K 21214.91667824 .00033349 00000-0 72599-2 0 9993
L22 48776 87.6580 254.7144 0007815 50.1297 153.4965 14.57779124 3564

Live tracking and technical data element details for ONEWEB-0244 (NORAD 48776). ONEWEB-0244 can be tracked NOW for your location showing map with azimuth and elevation plus other details from your city location.

Track the satellite on the map from your city or location and see movement details for azimuth, elevation, latitude, longitude, range, height, and movement on the map or in text.







IsCatalogInMostPopularTable: catalog: 48776, numindb: 16
Update: records affected: 1



GetName: 48776 ONEWEB-0244

Hit Count: updated at: Tue, 03 Aug 2021 20:26:20 GMT